Location: Tamazert
(32.6352°N, 5.2072°W)
Time: 04:31:57
(UTC+00:00)

Vanguard 1 Rocket - Pass Details

Date: 13 October 2022
Orbit: 650 x 4225 km, 34.3° (Epoch: 04 December)

Event Time Altitude Azimuth Distance (km) Brightness Sun altitude
Rises 01:02:01 0° 285° (WNW) 6,157 - -62.0°
Reaches altitude 10° 01:08:17 10° 270° (W) 4,380 - -61.3°
Maximum altitude 01:14:53 18° 232° (SW) 2,941 - -60.5°
Drops below altitude 10° 01:19:35 10° 191° (S) 2,937 - -59.9°
Sets 01:22:41 0° 171° (S) 3,533 - -59.5°
